Probability
0 0 0 0 0 0 0 0 0 0 0 0 0 0 0 0 0 0 0 0 0 0 0 0 0 0 0 0 0 0 0 0 0 0 0 0 0 0 0 0 0 0 0
0 0 0 0 0 0 0 0 0 0 0 0 0 0 0 0 0 0 0 0 0 0 0 0 0 0 0 0 0 0 0 0 0 0 0 0 0 0 0 0 0 0 0
0 0 0 0 0 0 0 0 0 0 0 0 0 0 0 0 0 0 0 0 0 0 0 0 0 0 0 0 0 0 0 0 0 0 0 0 0 0 0 0 0 0 0
0 0 0 0 0 0 0 0 0 0 0 0 0 0 0 0 0 0 0 0 0 0 0 0 0 0 0 0 0 0 0 0 0 0 0 0 0 0 0 0 0 0 0
0 0 0 0 0 0 0 0 0 0 0 0 0 0 0 0 0 0 0 0 0 0 0 0 0 0 0 0 0 0 0 0 0 0 0 0 0 0 0 0 0 0 0
0 0 0 0 0 0 0 0 0 0 0 0 0 0 0 0 0 0 0 0 0 0 0 0 0 0 0 0 0 0 0 0 0 0 0 0 0 0 0 0 0 0 0
0 0 0 0 0 0 0 0 0 0 0 0 0 0 0 0 0 0 0 0 0 0 0 0 0 0 0 0 0 0 0 0 0 0 0 0 0 0 0 0 0 0 0
0 0 0 0 0 0 0 0 0 0 0 0 0 0 0 0 0 0 0 0 0 0 0 0 0 0 0 0 0 0 0 0 0 0 0 0 0 0 0 0 0 0 0
0 0 0 0 0 0 0 0 0 0 0 0 0 0 0 0 0 0 0 0 0 0 0 0 0 0 0 0 0 0 0 0 0 0 0 0 0 0 0 0 0 0 0
0 0 0 0 0 0 0 0 0 0 0 0 0 0 0 0 0 0 0 0 0 0 0 0 0 0 0 0 0 0 0 0 0 0 0 0 0 0 0 0 0 0 0
0 0 0 0 0 0 0 0 0 0 0 0 0 0 0 0 0 0 0 0 0 0 0 0 0 0 0 0 0 0 0 0 0 0 0 0 0 0 0 0 0 0 0
0 0 0 0 0 0 0 0 0 0 0 0 0 0 0 0 0 0 0 0 0 0 0 0 0 0 0 0 0 0 0 0 0 0 0 0 0 0 0 0 0 0 0
0 0 0 0 0 0 0 0 0 0 0 0 0 0 0 0 0 0 0 0 0 0 0 0 0 0 0 0 0 0 0 0 0 0 0 0 0 0 0 0 0 0 0
0 0 0 0 0 0 0 0 0 0 0 0 0 0 0 0 0 0 0 0 0 0 0 0 0 0 0 0 0 0 0 0 0 0 0 0 0 0 0 0 0 0 0
0 0 0 0 0 0 0 0 0 0 0 0 0 0 0 0 0 0 0 0 0 0 0 0 0 0 0 0 0 0 0 0 0 0 0 0 0 0 0 0 0 0 0
0 0 0 0 0 0 0 0 0 0 0 0 0 0 0 0 0 0 0 0 0 0 0 0 0 0 0 0 0 0 0 0 0 0 0 0 0 0 0 0 0 0 0
0 0 0 0 0 0 0 0 0 0 0 0 0 0 0 0 0 0 0 0 0 0 0 0 0 0 0 0 0 0 0 0 0 0 0 0 0 0 0 0 0 0 0
0 0 0 0 0 0 0 0 0 0 0 0 0 0 0 0 0 0 0 0 0 0 0 0 0 0 0 0 0 0 0 0 0 0 0 0 0 0 0 0 0 0 0
0 0 0 0 0 0 0 0 0 0 0 0 0 0 0 0 0 0 0 0 0 0 0 0 0 0 0 0 0 0 0 0 0 0 0 0 0 0 0 0 0 0 0
0 0 0 0 0 0 0 0 0 0 0 0 0 0 0 0 0 0 0 0 0 0 0 0 0 0 0 0 0 0 0 0 0 0 0 0 0 0 0 0 0 0 0
0 0 0 0 0 0 0 0 0 0 0 0 0 0 0 0 0 0 0 0 0 0 0 0 0 0 0 0 0 0 0 0 0 0 0 0 0 0 0 0 0 0 0
0 0 0 0 0 0 0 0 0 0 0 0 0 0 0 0 0 0 0 0 0 0 0 0 0 0 0 0 0 0 0 0 0 0 0 0 0 0 0 0 0 0 0
0 0 0 0 0 0 0 0 0 0 0 0 0 0 0 0 0 0 0 0 0 0 0 0 0 0 0 0 0 0 0 0 0 0 0 0 0 0 0 0 0 0 0
0 0 0 0 0 0 0 0 0 0 0 0 0 0 0 0 0 0 0 0 0 0 0 0 0 0 0 0 0 0 0 0 0 0 0 0 0 0 0 0 0 0 0
0 0 0 0 0 0 0 0 0 0 0 0 0 0 0 0 0 0 0 0 0 0 0 0 0 0 0 0 0 0 0 0 0 0 0 0 0 0 0 0 0 0 0
0 0 0 0 0 0 0 0 0 0 0 0 0 0 0 0 0 0 0 0 0 0 0 0 0 0 0 0 0 0 0 0 0 0 0 0 0 0 0 0 0 0 0
Wind_Speed
9 8 9 8 8 9 8 8 8 8 8 9 9 9 10 9 9 9 9 9 10 9 8 9 9 7 6 5 5 5 4 4 6 3 1 2 2 2 3 2 2 2 2
7 8 8 8 8 9 9 8 8 8 8 9 9 9 9 9 9 9 10 9 9 9 8 9 8 7 8 6 5 6 5 4 5 5 2 3 3 2 2 2 3 2 2
7 8 8 8 9 9 8 8 8 9 9 9 9 9 8 8 8 8 9 9 9 9 8 9 8 8 8 6 6 6 5 5 5 5 3 2 2 2 2 3 3 3 3
7 8 8 8 7 7 7 8 8 8 8 8 8 8 8 8 8 8 8 9 9 9 8 8 7 7 6 6 6 6 6 6 5 4 3 2 2 2 2 2 2 3 2
7 7 7 6 7 7 8 8 8 8 8 7 8 8 7 7 6 7 7 8 8 8 8 8 8 9 9 5 4 4 5 5 4 4 3 2 2 2 2 2 2 2 2
6 6 6 6 6 6 6 7 7 7 7 8 8 8 8 6 8 9 8 7 7 7 7 7 7 9 10 10 9 7 5 4 4 3 2 1 0 1 1 1 1 2 2
5 5 5 5 5 5 6 7 7 6 7 7 7 7 7 7 9 10 10 7 7 6 6 6 6 7 7 6 8 9 8 6 4 3 2 2 2 2 1 0 0 1 2
5 5 5 5 6 6 6 6 5 5 5 5 6 6 6 7 9 9 10 8 7 7 6 6 5 6 6 5 5 6 5 4 2 1 2 3 3 3 2 1 1 2 3
5 4 4 5 5 5 5 5 4 4 5 5 5 6 6 6 8 8 8 5 6 6 5 5 5 5 6 6 5 5 4 4 3 3 2 3 5 5 4 2 1 1 2
4 4 4 5 5 5 4 4 3 4 4 5 6 6 6 6 7 8 6 4 5 4 4 4 6 5 5 5 4 3 3 3 4 4 3 3 2 1 5 4 2 1 1
4 5 5 4 4 4 4 3 4 4 5 5 6 6 6 7 7 8 7 4 3 3 3 3 3 6 5 4 2 1 1 2 2 2 2 3 2 2 1 2 3 3 3
5 5 5 4 3 4 5 4 4 4 5 4 4 5 5 5 7 7 8 6 3 2 2 2 3 5 4 4 2 2 1 1 1 2 3 3 3 3 3 3 3 5 6
5 5 4 4 4 3 4 4 3 3 3 3 3 3 3 3 4 7 8 7 6 2 2 4 4 5 5 4 7 6 4 2 2 2 3 2 3 4 4 3 2 2 4
6 4 4 4 4 4 3 3 3 2 2 2 2 2 2 2 3 3 3 3 4 3 3 4 6 7 6 5 5 5 4 3 2 2 2 2 3 3 3 3 3 3 3
5 4 4 4 4 4 4 3 2 1 1 2 2 2 2 1 2 2 1 2 2 2 2 3 4 4 4 4 3 3 3 3 3 2 2 3 3 3 3 3 2 2 2
4 3 3 3 3 3 3 3 5 3 3 3 4 3 1 2 1 2 3 3 3 2 2 2 2 2 2 3 3 3 2 3 3 2 2 3 3 3 3 3 2 2 3
4 3 2 2 2 2 1 2 2 3 5 4 2 2 2 1 1 2 2 4 4 3 2 1 1 1 1 2 2 2 2 2 2 2 2 3 3 3 3 3 4 3 3
3 3 3 2 2 2 1 1 1 1 1 2 2 1 1 2 2 2 1 2 2 2 1 0 1 1 1 1 2 2 2 2 2 2 3 3 3 3 3 4 4 4 4
3 2 2 2 2 2 1 1 1 1 0 1 1 2 2 2 1 1 1 1 0 1 1 1 1 1 1 1 1 1 1 2 2 2 2 3 3 3 3 4 4 5 4
2 3 3 2 2 2 1 1 1 1 1 1 2 2 1 1 1 1 0 1 1 1 2 2 2 1 1 1 1 1 1 1 2 2 3 3 3 3 4 5 5 4 4
2 2 3 2 2 2 2 2 2 2 2 2 2 2 3 1 2 2 2 2 2 2 2 2 2 2 2 1 1 2 2 2 2 2 3 3 3 3 3 4 4 4 4
2 2 2 2 2 2 2 2 2 2 2 3 2 2 2 2 2 2 3 3 3 3 3 2 3 2 2 2 2 2 2 3 3 3 3 3 3 4 4 4 4 4 4
2 2 2 2 2 2 2 2 2 2 3 3 3 2 2 2 3 3 4 3 3 3 3 3 3 3 3 3 3 3 3 3 3 3 3 4 4 4 4 4 5 5 5
3 3 3 2 2 2 2 2 3 3 3 3 3 3 4 4 4 4 4 4 3 3 3 3 4 5 6 4 3 4 4 4 3 3 4 4 5 4 4 4 5 5 5
3 3 3 2 2 2 3 3 3 3 4 4 4 4 4 4 4 5 4 4 4 4 5 5 4 5 7 8 6 5 5 6 5 4 4 4 5 6 5 6 5 6 5
3 3 3 3 3 3 3 4 4 4 4 4 4 4 5 5 5 5 4 4 4 5 5 5 7 8 8 7 8 7 7 7 6 6 4 4 5 5 5 5 7 6 6
Wind_Direction
55 56 58 57 58 61 61 59 58 57 57 58 58 60 60 58 59 65 64 64 67 63 61 68 65 63 70 69 75 79 81 97 114 100 60 29 38 32 15 8 2 354 347
61 61 61 61 61 61 59 55 58 59 58 59 60 60 61 60 59 63 67 64 67 65 62 66 63 68 65 62 70 74 75 79 113 111 66 37 37 20 4 10 12 14 360
65 65 62 60 61 60 58 57 59 61 59 59 62 62 61 62 63 64 68 67 66 65 63 65 62 70 68 67 72 75 75 79 85 104 82 42 33 19 13 11 9 360 357
69 68 64 59 60 61 61 59 57 59 61 60 61 62 62 63 66 69 70 69 67 64 62 63 62 66 72 75 78 81 87 86 86 91 82 52 34 11 26 16 0 356 346
75 73 68 63 63 62 62 61 59 58 61 61 63 59 55 57 63 73 73 73 70 65 57 54 58 63 66 69 87 95 97 94 91 86 76 56 33 21 19 352 343 329 323
79 78 76 72 66 64 65 66 64 58 56 59 57 59 54 53 67 76 81 74 69 65 57 49 52 48 51 59 74 88 107 113 113 103 94 91 355 306 317 340 343 350 333
81 82 84 83 78 71 74 70 66 59 58 57 52 57 56 50 68 78 79 78 71 63 57 50 48 41 48 59 63 65 65 80 121 138 149 190 215 218 215 290 279 285 283
87 85 85 86 82 75 73 70 65 61 60 56 51 52 55 47 64 81 82 76 71 62 56 54 55 40 42 60 68 63 56 50 61 156 203 225 234 226 211 245 279 279 273
96 96 96 98 94 86 81 74 68 71 65 57 52 51 54 39 55 79 84 79 70 55 45 45 50 47 40 60 70 63 48 22 16 15 255 258 257 241 200 189 221 322 327
105 101 96 97 97 93 87 76 70 78 74 70 60 48 50 43 50 73 82 83 71 53 36 29 35 36 37 57 71 65 43 0 351 359 10 7 3 342 189 200 212 228 282
106 98 91 91 97 97 84 74 84 85 78 70 65 50 44 40 44 59 69 74 76 57 35 10 359 7 28 51 76 88 306 314 342 359 6 12 18 25 39 226 220 220 235
97 92 87 84 95 104 99 87 82 88 84 72 66 53 37 29 36 51 59 62 71 67 23 341 330 357 34 48 49 35 47 64 50 36 28 14 1 351 339 322 263 234 239
95 90 87 80 71 85 103 105 91 87 92 85 76 64 34 21 23 37 44 43 47 51 354 353 13 40 55 51 45 49 56 57 51 40 21 355 328 313 313 320 322 291 260
97 86 81 83 75 67 70 81 97 102 105 104 103 90 49 21 12 8 11 15 21 26 12 13 34 50 53 46 38 35 37 39 45 27 353 329 324 334 348 350 347 347 340
101 95 88 82 85 75 67 60 80 91 181 155 157 148 132 60 315 324 352 354 351 353 8 30 30 27 28 22 21 25 26 30 31 13 359 354 354 355 354 347 345 340 338
108 104 105 103 95 91 86 62 44 54 79 136 154 157 185 222 266 334 351 353 355 23 64 49 35 26 20 8 360 360 10 16 10 0 3 2 356 351 347 350 345 337 328
131 134 128 127 130 128 111 98 60 27 48 75 125 168 188 220 279 328 2 21 34 68 70 51 29 7 354 347 344 344 350 355 351 357 4 1 352 348 349 349 349 339 329
132 144 146 147 148 145 141 129 120 95 23 0 4 335 276 271 280 294 342 40 36 42 47 356 323 322 322 327 335 341 346 356 6 6 4 358 353 347 345 344 343 334 321
144 152 148 145 149 152 151 147 145 153 236 289 314 324 333 322 337 348 102 102 305 327 321 298 285 289 297 307 319 329 337 348 353 347 346 345 344 338 335 333 329 325 319
161 184 167 156 152 153 162 174 192 218 249 265 274 283 319 357 337 338 3 214 240 264 274 279 278 271 276 284 297 306 317 327 335 334 331 330 329 324 324 326 325 324 318
168 179 165 157 172 185 193 204 215 227 246 259 264 258 231 241 266 273 274 255 247 251 252 255 254 259 256 255 260 272 283 296 302 309 314 318 321 319 317 314 313 312 312
170 174 172 184 196 204 212 215 220 234 252 260 272 287 243 226 252 265 263 260 253 244 238 236 246 249 248 246 246 253 268 279 287 294 301 308 310 312 315 318 322 322 326
172 180 188 198 207 216 220 222 225 237 248 253 257 262 257 246 253 259 261 260 255 246 231 223 237 249 246 238 234 240 255 266 274 277 288 299 306 310 314 315 320 323 326
180 188 195 205 209 213 225 238 241 245 250 252 250 250 251 250 254 259 260 257 253 249 235 227 234 246 250 243 234 235 241 248 253 258 267 280 292 300 303 304 308 313 312
186 194 202 211 218 226 234 243 247 251 251 248 248 251 254 254 256 260 258 252 250 249 245 236 236 244 250 249 245 243 240 241 242 244 253 263 277 286 293 297 300 306 307
199 208 214 217 223 227 231 240 247 248 248 247 246 247 251 254 257 259 256 249 247 248 248 244 240 242 246 249 249 247 242 243 246 243 244 255 267 276 288 288 296 297 301